User: anonymous
Location: Unspecified
(0.0000°N, 0.0000°E)
Time: 23:14:22
(UTC+02:00)
Language:

Cosmos 540 Rocket - Orbit

View from above orbital plane
View from above orbital plane
View from above satellite
View from above satellite

Ground track
Ground track

The orbit data is extracted from the following two-line orbital elements,

1 06324U 72104B   14292.80411082  .00000324  00000-0  10469-3 0  3874
2 06324 074.0759 105.7678 0008306 140.5582 319.4705 14.42993589195441
Epoch (UTC): 19 October 2014 19:17:55
Eccentricity: 0.0008306
inclination: 74.0759°
perigee height: 743 km
apogee height: 754 km
right ascension of ascending node: 105.7678°
argument of perigee: 140.5582°
revolutions per day: 14.42993589
mean anomaly at epoch: 319.4705°
orbit number at epoch: 19544

The dashed part of the orbit path shows where the satellite is in the earth's shadow,  

DLR